Year,Month,Day,Hour,Minute,Value (Times are PST for windgust in km/hr)
2023,02,20,00,00,69.20
2023,02,20,00,01,69.20
2023,02,20,00,02,69.20
2023,02,20,00,03,70.80
2023,02,20,00,04,70.80
2023,02,20,00,05,70.80
2023,02,20,00,06,74.00
2023,02,20,00,07,77.30
2023,02,20,00,08,72.40
2023,02,20,00,09,74.00
2023,02,20,00,10,69.20
2023,02,20,00,11,70.80
2023,02,20,00,12,77.30
2023,02,20,00,13,75.60
2023,02,20,00,14,75.60
2023,02,20,00,15,75.60
2023,02,20,00,16,74.00
2023,02,20,00,17,77.30
2023,02,20,00,18,74.00
2023,02,20,00,19,77.30
2023,02,20,00,20,70.80
2023,02,20,00,21,62.70
2023,02,20,00,22,64.40
2023,02,20,00,23,67.60
2023,02,20,00,24,72.40
2023,02,20,00,25,69.20
2023,02,20,00,26,64.40
2023,02,20,00,27,66.00
2023,02,20,00,28,72.40
2023,02,20,00,29,64.40
2023,02,20,00,30,64.40
2023,02,20,00,31,69.20
2023,02,20,00,32,66.00
2023,02,20,00,33,67.60
2023,02,20,00,34,64.40
2023,02,20,00,35,74.00
2023,02,20,00,36,72.40
2023,02,20,00,37,70.80
2023,02,20,00,38,70.80
2023,02,20,00,39,72.40
2023,02,20,00,40,74.00
2023,02,20,00,41,66.00
2023,02,20,00,42,64.40
2023,02,20,00,43,70.80
2023,02,20,00,44,59.50
2023,02,20,00,45,57.90
2023,02,20,00,46,59.50
2023,02,20,00,47,61.20
2023,02,20,00,48,74.00
2023,02,20,00,49,75.60
2023,02,20,00,50,67.60
2023,02,20,00,51,62.70
2023,02,20,00,52,61.20
2023,02,20,00,53,59.50
2023,02,20,00,54,62.70
2023,02,20,00,55,67.60
2023,02,20,00,56,67.60
2023,02,20,00,57,72.40
2023,02,20,00,58,75.60
2023,02,20,00,59,67.60
2023,02,20,01,00,67.60
2023,02,20,01,01,70.80
2023,02,20,01,02,69.20
2023,02,20,01,03,69.20
2023,02,20,01,04,59.50
2023,02,20,01,05,61.20
2023,02,20,01,06,67.60
2023,02,20,01,07,62.70
2023,02,20,01,08,64.40
2023,02,20,01,09,64.40
2023,02,20,01,10,66.00
2023,02,20,01,11,67.60
2023,02,20,01,12,64.40
2023,02,20,01,13,72.40
2023,02,20,01,14,72.40
2023,02,20,01,15,69.20
2023,02,20,01,16,66.00
2023,02,20,01,17,64.40
2023,02,20,01,18,56.30
2023,02,20,01,19,56.30
2023,02,20,01,20,74.00
2023,02,20,01,21,72.40
2023,02,20,01,22,61.20
2023,02,20,01,23,67.60
2023,02,20,01,24,64.40
2023,02,20,01,25,64.40
2023,02,20,01,26,61.20
2023,02,20,01,27,56.30
2023,02,20,01,28,59.50
2023,02,20,01,29,62.70
2023,02,20,01,30,61.20
2023,02,20,01,31,61.20
2023,02,20,01,32,61.20
2023,02,20,01,33,59.50
2023,02,20,01,34,54.70
2023,02,20,01,35,62.70
2023,02,20,01,36,56.30
2023,02,20,01,37,66.00
2023,02,20,01,38,64.40
2023,02,20,01,39,61.20
2023,02,20,01,40,61.20
2023,02,20,01,41,61.20
2023,02,20,01,42,62.70
2023,02,20,01,43,64.40
2023,02,20,01,44,64.40
2023,02,20,01,45,61.20
2023,02,20,01,46,64.40
2023,02,20,01,47,64.40
2023,02,20,01,48,64.40
2023,02,20,01,49,62.70
2023,02,20,01,50,66.00
2023,02,20,01,51,66.00
2023,02,20,01,52,66.00
2023,02,20,01,53,66.00
2023,02,20,01,54,67.60
2023,02,20,01,55,69.20
2023,02,20,01,56,59.50
2023,02,20,01,57,72.40
2023,02,20,01,58,66.00
2023,02,20,01,59,64.40
2023,02,20,02,00,66.00
2023,02,20,02,01,70.80
2023,02,20,02,02,67.60
2023,02,20,02,03,62.70
2023,02,20,02,04,64.40
2023,02,20,02,05,64.40
2023,02,20,02,06,64.40
2023,02,20,02,07,61.20
2023,02,20,02,08,61.20
2023,02,20,02,09,57.90
2023,02,20,02,10,61.20
2023,02,20,02,11,61.20
2023,02,20,02,12,59.50
2023,02,20,02,13,59.50
2023,02,20,02,14,57.90
2023,02,20,02,15,51.50
2023,02,20,02,16,51.50
2023,02,20,02,17,53.10
2023,02,20,02,18,56.30
2023,02,20,02,19,56.30
2023,02,20,02,20,53.10
2023,02,20,02,21,51.50
2023,02,20,02,22,51.50
2023,02,20,02,23,53.10
2023,02,20,02,24,54.70
2023,02,20,02,25,57.90
2023,02,20,02,26,61.20
2023,02,20,02,27,64.40
2023,02,20,02,28,61.20
2023,02,20,02,29,61.20
2023,02,20,02,30,59.50
2023,02,20,02,31,64.40
2023,02,20,02,32,61.20
2023,02,20,02,33,59.50
2023,02,20,02,34,57.90
2023,02,20,02,35,53.10
2023,02,20,02,36,54.70
2023,02,20,02,37,54.70
2023,02,20,02,38,53.10
2023,02,20,02,39,53.10
2023,02,20,02,40,57.90
2023,02,20,02,41,56.30
2023,02,20,02,42,57.90
2023,02,20,02,43,57.90
2023,02,20,02,44,53.10
2023,02,20,02,45,56.30
2023,02,20,02,46,57.90
2023,02,20,02,47,59.50
2023,02,20,02,48,57.90
2023,02,20,02,49,56.30
2023,02,20,02,50,56.30
2023,02,20,02,51,59.50
2023,02,20,02,52,56.30
2023,02,20,02,53,56.30
2023,02,20,02,54,57.90
2023,02,20,02,55,56.30
2023,02,20,02,56,56.30
2023,02,20,02,57,54.70
2023,02,20,02,58,54.70
2023,02,20,02,59,56.30
2023,02,20,03,00,53.10
2023,02,20,03,01,53.10
2023,02,20,03,02,54.70
2023,02,20,03,03,51.50
2023,02,20,03,04,49.90
2023,02,20,03,05,51.50
2023,02,20,03,06,54.70
2023,02,20,03,07,54.70
2023,02,20,03,08,54.70
2023,02,20,03,09,56.30
2023,02,20,03,10,59.50
2023,02,20,03,11,57.90
2023,02,20,03,12,59.50
2023,02,20,03,13,56.30
2023,02,20,03,14,57.90
2023,02,20,03,15,54.70
2023,02,20,03,16,56.30
2023,02,20,03,17,53.10
2023,02,20,03,18,56.30
2023,02,20,03,19,56.30
2023,02,20,03,20,59.50
2023,02,20,03,21,56.30
2023,02,20,03,22,54.70
2023,02,20,03,23,53.10
2023,02,20,03,24,51.50
2023,02,20,03,25,54.70
2023,02,20,03,26,57.90
2023,02,20,03,27,54.70
2023,02,20,03,28,49.90
2023,02,20,03,29,61.20
2023,02,20,03,30,56.30
2023,02,20,03,31,54.70
2023,02,20,03,32,56.30
2023,02,20,03,33,56.30
2023,02,20,03,34,66.00
2023,02,20,03,35,57.90
2023,02,20,03,36,61.20
2023,02,20,03,37,66.00
2023,02,20,03,38,64.40
2023,02,20,03,39,62.70
2023,02,20,03,40,61.20
2023,02,20,03,41,67.60
2023,02,20,03,42,67.60
2023,02,20,03,43,67.60
2023,02,20,03,44,72.40
2023,02,20,03,45,70.80
2023,02,20,03,46,69.20
2023,02,20,03,47,67.60
2023,02,20,03,48,72.40
2023,02,20,03,49,66.00
2023,02,20,03,50,66.00
2023,02,20,03,51,66.00
2023,02,20,03,52,66.00
2023,02,20,03,53,66.00
2023,02,20,03,54,59.50
2023,02,20,03,55,59.50
2023,02,20,03,56,59.50
2023,02,20,03,57,59.50
2023,02,20,03,58,70.80
2023,02,20,03,59,67.60
2023,02,20,04,00,67.60
2023,02,20,04,01,61.20
2023,02,20,04,02,67.60
2023,02,20,04,03,64.40
2023,02,20,04,04,64.40
2023,02,20,04,05,62.70
2023,02,20,04,06,61.20
2023,02,20,04,07,59.50
2023,02,20,04,08,57.90
2023,02,20,04,09,56.30
2023,02,20,04,10,66.00
2023,02,20,04,11,64.40
2023,02,20,04,12,66.00
2023,02,20,04,13,62.70
2023,02,20,04,14,61.20
2023,02,20,04,15,61.20
2023,02,20,04,16,64.40
2023,02,20,04,17,67.60
2023,02,20,04,18,61.20
2023,02,20,04,19,66.00
2023,02,20,04,20,64.40
2023,02,20,04,21,62.70
2023,02,20,04,22,61.20
2023,02,20,04,23,62.70
2023,02,20,04,24,69.20
2023,02,20,04,25,64.40
2023,02,20,04,26,61.20
2023,02,20,04,27,66.00
2023,02,20,04,28,66.00
2023,02,20,04,29,69.20
2023,02,20,04,30,67.60
2023,02,20,04,31,67.60
2023,02,20,04,32,66.00
2023,02,20,04,33,66.00
2023,02,20,04,34,61.20
2023,02,20,04,35,67.60
2023,02,20,04,36,66.00
2023,02,20,04,37,69.20
2023,02,20,04,38,72.40
2023,02,20,04,39,64.40
2023,02,20,04,40,62.70
2023,02,20,04,41,69.20
2023,02,20,04,42,70.80
2023,02,20,04,43,67.60
2023,02,20,04,44,69.20
2023,02,20,04,45,70.80
2023,02,20,04,46,69.20
2023,02,20,04,47,66.00
2023,02,20,04,48,64.40
2023,02,20,04,49,61.20
2023,02,20,04,50,69.20
2023,02,20,04,51,69.20
2023,02,20,04,52,69.20
2023,02,20,04,53,70.80
2023,02,20,04,54,72.40
2023,02,20,04,55,62.70
2023,02,20,04,56,62.70
2023,02,20,04,57,61.20
2023,02,20,04,58,62.70
2023,02,20,04,59,57.90
2023,02,20,05,00,59.50
2023,02,20,05,01,54.70
2023,02,20,05,02,57.90
2023,02,20,05,03,62.70
2023,02,20,05,04,64.40
2023,02,20,05,05,61.20
2023,02,20,05,06,61.20
2023,02,20,05,07,56.30
2023,02,20,05,08,57.90
2023,02,20,05,09,54.70
2023,02,20,05,10,51.50
2023,02,20,05,11,57.90
2023,02,20,05,12,56.30
2023,02,20,05,13,56.30
2023,02,20,05,14,57.90
2023,02,20,05,15,56.30
2023,02,20,05,16,57.90
2023,02,20,05,17,57.90
2023,02,20,05,18,54.70
2023,02,20,05,19,54.70
2023,02,20,05,20,53.10
2023,02,20,05,21,53.10
2023,02,20,05,22,54.70
2023,02,20,05,23,57.90
2023,02,20,05,24,56.30
2023,02,20,05,25,56.30
2023,02,20,05,26,59.50
2023,02,20,05,27,56.30
2023,02,20,05,28,53.10
2023,02,20,05,29,49.90
2023,02,20,05,30,53.10
2023,02,20,05,31,54.70
2023,02,20,05,32,54.70
2023,02,20,05,33,49.90
2023,02,20,05,34,51.50
2023,02,20,05,35,51.50
2023,02,20,05,36,53.10
2023,02,20,05,37,53.10
2023,02,20,05,38,48.30
2023,02,20,05,39,48.30
2023,02,20,05,40,49.90
2023,02,20,05,41,49.90
2023,02,20,05,42,48.30
2023,02,20,05,43,51.50
2023,02,20,05,44,46.70
2023,02,20,05,45,48.30
2023,02,20,05,46,48.30
2023,02,20,05,47,53.10
2023,02,20,05,48,54.70
2023,02,20,05,49,51.50
2023,02,20,05,50,51.50
2023,02,20,05,51,46.70
2023,02,20,05,52,46.70
2023,02,20,05,53,48.30
2023,02,20,05,54,48.30
2023,02,20,05,55,43.50
2023,02,20,05,56,48.30
2023,02,20,05,57,53.10
2023,02,20,05,58,48.30
2023,02,20,05,59,49.90
2023,02,20,06,00,51.50
2023,02,20,06,01,45.10
2023,02,20,06,02,46.70
2023,02,20,06,03,46.70
2023,02,20,06,04,48.30
2023,02,20,06,05,48.30
2023,02,20,06,06,53.10
2023,02,20,06,07,56.30
2023,02,20,06,08,54.70
2023,02,20,06,09,57.90
2023,02,20,06,10,54.70
2023,02,20,06,11,51.50
2023,02,20,06,12,54.70
2023,02,20,06,13,56.30
2023,02,20,06,14,56.30
2023,02,20,06,15,54.70
2023,02,20,06,16,51.50
2023,02,20,06,17,53.10
2023,02,20,06,18,56.30
2023,02,20,06,19,53.10
2023,02,20,06,20,48.30
2023,02,20,06,21,53.10
2023,02,20,06,22,59.50
2023,02,20,06,23,53.10
2023,02,20,06,24,57.90
2023,02,20,06,25,57.90
2023,02,20,06,26,51.50
2023,02,20,06,27,51.50
2023,02,20,06,28,51.50
2023,02,20,06,29,51.50
2023,02,20,06,30,51.50
2023,02,20,06,31,59.50
2023,02,20,06,32,56.30
2023,02,20,06,33,61.20
2023,02,20,06,34,56.30
2023,02,20,06,35,54.70
2023,02,20,06,36,51.50
2023,02,20,06,37,53.10
2023,02,20,06,38,48.30
2023,02,20,06,39,54.70
2023,02,20,06,40,51.50
2023,02,20,06,41,57.90
2023,02,20,06,42,61.20
2023,02,20,06,43,54.70
2023,02,20,06,44,53.10
2023,02,20,06,45,54.70
2023,02,20,06,46,53.10
2023,02,20,06,47,56.30
2023,02,20,06,48,56.30
2023,02,20,06,49,53.10
2023,02,20,06,50,49.90
2023,02,20,06,51,51.50
2023,02,20,06,52,53.10
2023,02,20,06,53,53.10
2023,02,20,06,54,56.30
2023,02,20,06,55,56.30
2023,02,20,06,56,51.50
2023,02,20,06,57,54.70
2023,02,20,06,58,49.90
2023,02,20,06,59,53.10
2023,02,20,07,00,51.50
2023,02,20,07,01,53.10
2023,02,20,07,02,49.90
2023,02,20,07,03,53.10
2023,02,20,07,04,56.30
2023,02,20,07,05,57.90
2023,02,20,07,06,56.30
2023,02,20,07,07,51.50
2023,02,20,07,08,51.50
2023,02,20,07,09,59.50
2023,02,20,07,10,53.10
2023,02,20,07,11,53.10
2023,02,20,07,12,54.70
2023,02,20,07,13,56.30
2023,02,20,07,14,56.30
2023,02,20,07,15,57.90
2023,02,20,07,16,59.50
2023,02,20,07,17,61.20
2023,02,20,07,18,66.00
2023,02,20,07,19,59.50
2023,02,20,07,20,57.90
2023,02,20,07,21,61.20
2023,02,20,07,22,57.90
2023,02,20,07,23,56.30
2023,02,20,07,24,56.30
2023,02,20,07,25,49.90
2023,02,20,07,26,51.50
2023,02,20,07,27,48.30
2023,02,20,07,28,51.50
2023,02,20,07,29,54.70
2023,02,20,07,30,53.10
2023,02,20,07,31,53.10
2023,02,20,07,32,56.30
2023,02,20,07,33,56.30
2023,02,20,07,34,54.70
2023,02,20,07,35,54.70
2023,02,20,07,36,53.10
2023,02,20,07,37,57.90
2023,02,20,07,38,66.00
2023,02,20,07,39,61.20
2023,02,20,07,40,62.70
2023,02,20,07,41,57.90
2023,02,20,07,42,59.50
2023,02,20,07,43,61.20
2023,02,20,07,44,54.70
2023,02,20,07,45,54.70
2023,02,20,07,46,59.50
2023,02,20,07,47,54.70
2023,02,20,07,48,51.50
2023,02,20,07,49,53.10
2023,02,20,07,50,51.50
2023,02,20,07,51,53.10
2023,02,20,07,52,56.30
2023,02,20,07,53,53.10
2023,02,20,07,54,54.70
2023,02,20,07,55,53.10
2023,02,20,07,56,53.10
2023,02,20,07,57,53.10
2023,02,20,07,58,56.30
2023,02,20,07,59,53.10
2023,02,20,08,00,56.30
2023,02,20,08,01,54.70
2023,02,20,08,02,56.30
2023,02,20,08,03,56.30
2023,02,20,08,04,59.50
2023,02,20,08,05,56.30
2023,02,20,08,06,59.50
2023,02,20,08,07,56.30
2023,02,20,08,08,54.70
2023,02,20,08,09,56.30
2023,02,20,08,10,56.30
2023,02,20,08,11,56.30
2023,02,20,08,12,57.90
2023,02,20,08,13,56.30
2023,02,20,08,14,53.10
2023,02,20,08,15,46.70
2023,02,20,08,16,49.90
2023,02,20,08,17,49.90
2023,02,20,08,18,54.70
2023,02,20,08,19,56.30
2023,02,20,08,20,51.50
2023,02,20,08,21,51.50
2023,02,20,08,22,53.10
2023,02,20,08,23,51.50
2023,02,20,08,24,54.70
2023,02,20,08,25,48.30
2023,02,20,08,26,45.10
2023,02,20,08,27,46.70
2023,02,20,08,28,46.70
2023,02,20,08,29,45.10
2023,02,20,08,30,48.30
2023,02,20,08,31,41.80
2023,02,20,08,32,43.50
2023,02,20,08,33,46.70
2023,02,20,08,34,51.50
2023,02,20,08,35,49.90
2023,02,20,08,36,45.10
2023,02,20,08,37,45.10
2023,02,20,08,38,46.70
2023,02,20,08,39,57.90
2023,02,20,08,40,49.90
2023,02,20,08,41,49.90
2023,02,20,08,42,49.90
2023,02,20,08,43,49.90
2023,02,20,08,44,49.90
2023,02,20,08,45,53.10
2023,02,20,08,46,49.90
2023,02,20,08,47,51.50
2023,02,20,08,48,56.30
2023,02,20,08,49,53.10
2023,02,20,08,50,51.50
2023,02,20,08,51,51.50
2023,02,20,08,52,49.90
2023,02,20,08,53,46.70
2023,02,20,08,54,53.10
2023,02,20,08,55,54.70
2023,02,20,08,56,54.70
2023,02,20,08,57,49.90
2023,02,20,08,58,53.10
2023,02,20,08,59,53.10
2023,02,20,09,00,48.30
2023,02,20,09,01,46.70
2023,02,20,09,02,45.10
2023,02,20,09,03,45.10
2023,02,20,09,04,51.50
2023,02,20,09,05,53.10
2023,02,20,09,06,53.10
2023,02,20,09,07,61.20
2023,02,20,09,08,56.30
2023,02,20,09,09,59.50
2023,02,20,09,10,59.50
2023,02,20,09,11,56.30
2023,02,20,09,12,59.50
2023,02,20,09,13,54.70
2023,02,20,09,14,61.20
2023,02,20,09,15,61.20
2023,02,20,09,16,61.20
2023,02,20,09,17,61.20
2023,02,20,09,18,57.90
2023,02,20,09,19,59.50
2023,02,20,09,20,54.70
2023,02,20,09,21,51.50
2023,02,20,09,22,51.50
2023,02,20,09,23,56.30
2023,02,20,09,24,49.90
2023,02,20,09,25,54.70
2023,02,20,09,26,53.10
2023,02,20,09,27,56.30
2023,02,20,09,28,54.70
2023,02,20,09,29,53.10
2023,02,20,09,30,54.70
2023,02,20,09,31,53.10
2023,02,20,09,32,53.10
2023,02,20,09,33,56.30
2023,02,20,09,34,53.10
2023,02,20,09,35,53.10
2023,02,20,09,36,49.90
2023,02,20,09,37,51.50
2023,02,20,09,38,49.90
2023,02,20,09,39,48.30
2023,02,20,09,40,46.70
2023,02,20,09,41,48.30
2023,02,20,09,42,45.10
2023,02,20,09,43,43.50
2023,02,20,09,44,41.80
2023,02,20,09,45,38.60
2023,02,20,09,46,41.80
2023,02,20,09,47,41.80
2023,02,20,09,48,43.50
2023,02,20,09,49,43.50
2023,02,20,09,50,38.60
2023,02,20,09,51,37.00
2023,02,20,09,52,35.40
2023,02,20,09,53,35.40
2023,02,20,09,54,37.00
2023,02,20,09,55,37.00
2023,02,20,09,56,35.40
2023,02,20,09,57,35.40
2023,02,20,09,58,32.20
2023,02,20,09,59,30.60
2023,02,20,10,00,29.00
2023,02,20,10,01,27.40
2023,02,20,10,02,33.80
2023,02,20,10,03,30.60
2023,02,20,10,04,35.40
2023,02,20,10,05,33.80
2023,02,20,10,06,33.80
2023,02,20,10,07,33.80
2023,02,20,10,08,35.40
2023,02,20,10,09,35.40
2023,02,20,10,10,40.20
2023,02,20,10,11,43.50
2023,02,20,10,12,35.40
2023,02,20,10,13,38.60
2023,02,20,10,14,37.00
2023,02,20,10,15,33.80
2023,02,20,10,16,33.80
2023,02,20,10,17,32.20
2023,02,20,10,18,33.80
2023,02,20,10,19,33.80
2023,02,20,10,20,33.80
2023,02,20,10,21,27.40
2023,02,20,10,22,32.20
2023,02,20,10,23,33.80
2023,02,20,10,24,38.60
2023,02,20,10,25,37.00
2023,02,20,10,26,33.80
2023,02,20,10,27,32.20
2023,02,20,10,28,35.40
2023,02,20,10,29,35.40
2023,02,20,10,30,33.80
2023,02,20,10,31,33.80
2023,02,20,10,32,33.80
2023,02,20,10,33,30.60
2023,02,20,10,34,27.40
2023,02,20,10,35,33.80
2023,02,20,10,36,33.80
2023,02,20,10,37,35.40
2023,02,20,10,38,30.60
2023,02,20,10,39,32.20
2023,02,20,10,40,29.00
2023,02,20,10,41,30.60
2023,02,20,10,42,30.60
2023,02,20,10,43,29.00
2023,02,20,10,44,27.40
2023,02,20,10,45,27.40
2023,02,20,10,46,29.00
2023,02,20,10,47,24.20
2023,02,20,10,48,25.70
2023,02,20,10,49,25.70
2023,02,20,10,50,33.80
2023,02,20,10,51,37.00
2023,02,20,10,52,35.40
2023,02,20,10,53,38.60
2023,02,20,10,54,49.90
2023,02,20,10,55,53.10
2023,02,20,10,56,43.50
2023,02,20,10,57,43.50
2023,02,20,10,58,43.50
2023,02,20,10,59,43.50
2023,02,20,11,00,49.90
2023,02,20,11,01,48.30
2023,02,20,11,02,43.50
2023,02,20,11,03,40.20
2023,02,20,11,04,43.50
2023,02,20,11,05,40.20
2023,02,20,11,06,40.20
2023,02,20,11,07,41.80
2023,02,20,11,08,40.20
2023,02,20,11,09,38.60
2023,02,20,11,10,41.80
2023,02,20,11,11,40.20
2023,02,20,11,12,41.80
2023,02,20,11,13,41.80
2023,02,20,11,14,43.50
2023,02,20,11,15,43.50
2023,02,20,11,16,41.80
2023,02,20,11,17,46.70
2023,02,20,11,18,45.10
2023,02,20,11,19,43.50
2023,02,20,11,20,37.00
2023,02,20,11,21,41.80
2023,02,20,11,22,37.00
2023,02,20,11,23,43.50
2023,02,20,11,24,45.10
2023,02,20,11,25,38.60
2023,02,20,11,26,35.40
2023,02,20,11,27,38.60
2023,02,20,11,28,40.20
2023,02,20,11,29,37.00
2023,02,20,11,30,37.00
2023,02,20,11,31,37.00
2023,02,20,11,32,38.60
2023,02,20,11,33,40.20
2023,02,20,11,34,40.20
2023,02,20,11,35,37.00
2023,02,20,11,36,35.40
2023,02,20,11,37,40.20
2023,02,20,11,38,38.60
2023,02,20,11,39,37.00
2023,02,20,11,40,40.20
2023,02,20,11,41,41.80
2023,02,20,11,42,38.60
2023,02,20,11,43,37.00
2023,02,20,11,44,41.80
2023,02,20,11,45,38.60
2023,02,20,11,46,32.20
2023,02,20,11,47,40.20
2023,02,20,11,48,40.20
2023,02,20,11,49,33.80
2023,02,20,11,50,37.00
2023,02,20,11,51,35.40
2023,02,20,11,52,33.80
2023,02,20,11,53,33.80
2023,02,20,11,54,35.40
2023,02,20,11,55,40.20
2023,02,20,11,56,41.80
2023,02,20,11,57,41.80
2023,02,20,11,58,43.50
2023,02,20,11,59,43.50
2023,02,20,12,00,43.50
2023,02,20,12,01,41.80
2023,02,20,12,02,48.30
2023,02,20,12,03,48.30
2023,02,20,12,04,49.90
2023,02,20,12,05,56.30
2023,02,20,12,06,53.10
2023,02,20,12,07,54.70
2023,02,20,12,08,48.30
2023,02,20,12,09,49.90
2023,02,20,12,10,48.30
2023,02,20,12,11,48.30
2023,02,20,12,12,49.90
2023,02,20,12,13,51.50
2023,02,20,12,14,53.10
2023,02,20,12,15,54.70
2023,02,20,12,16,54.70
2023,02,20,12,17,56.30
2023,02,20,12,18,49.90
2023,02,20,12,19,51.50
2023,02,20,12,20,49.90
2023,02,20,12,21,56.30
2023,02,20,12,22,57.90
2023,02,20,12,23,53.10
2023,02,20,12,24,51.50
2023,02,20,12,25,54.70
2023,02,20,12,26,53.10
2023,02,20,12,27,49.90
2023,02,20,12,28,51.50
2023,02,20,12,29,51.50
2023,02,20,12,30,45.10
2023,02,20,12,31,43.50
2023,02,20,12,32,48.30
2023,02,20,12,33,48.30
2023,02,20,12,34,46.70
2023,02,20,12,35,43.50
2023,02,20,12,36,46.70
2023,02,20,12,37,46.70
2023,02,20,12,38,46.70
2023,02,20,12,39,46.70
2023,02,20,12,40,43.50
2023,02,20,12,41,43.50
2023,02,20,12,42,49.90
2023,02,20,12,43,48.30
2023,02,20,12,44,41.80
2023,02,20,12,45,38.60
2023,02,20,12,46,40.20
2023,02,20,12,47,35.40
2023,02,20,12,48,37.00
2023,02,20,12,49,40.20
2023,02,20,12,50,35.40
2023,02,20,12,51,37.00
2023,02,20,12,52,40.20
2023,02,20,12,53,38.60
2023,02,20,12,54,38.60
2023,02,20,12,55,37.00
2023,02,20,12,56,32.20
2023,02,20,12,57,32.20
2023,02,20,12,58,32.20
2023,02,20,12,59,32.20
2023,02,20,13,00,40.20
2023,02,20,13,01,32.20
2023,02,20,13,02,33.80
2023,02,20,13,03,40.20
2023,02,20,13,04,41.80
2023,02,20,13,05,38.60
2023,02,20,13,06,37.00
2023,02,20,13,07,37.00
2023,02,20,13,08,43.50
2023,02,20,13,09,45.10
2023,02,20,13,10,37.00
2023,02,20,13,11,33.80
2023,02,20,13,12,37.00
2023,02,20,13,13,43.50
2023,02,20,13,14,46.70
2023,02,20,13,15,46.70
2023,02,20,13,16,45.10
2023,02,20,13,17,43.50
2023,02,20,13,18,41.80
2023,02,20,13,19,41.80
2023,02,20,13,20,43.50
2023,02,20,13,21,43.50
2023,02,20,13,22,38.60
2023,02,20,13,23,33.80
2023,02,20,13,24,33.80
2023,02,20,13,25,35.40
2023,02,20,13,26,41.80
2023,02,20,13,27,45.10
2023,02,20,13,28,48.30
2023,02,20,13,29,57.90
2023,02,20,13,30,56.30
2023,02,20,13,31,53.10
2023,02,20,13,32,49.90
2023,02,20,13,33,53.10
2023,02,20,13,34,48.30
2023,02,20,13,35,46.70
2023,02,20,13,36,51.50
2023,02,20,13,37,56.30
2023,02,20,13,38,51.50
2023,02,20,13,39,54.70
2023,02,20,13,40,56.30
2023,02,20,13,41,56.30
2023,02,20,13,42,56.30
2023,02,20,13,43,61.20
2023,02,20,13,44,59.50
2023,02,20,13,45,57.90
2023,02,20,13,46,54.70
2023,02,20,13,47,56.30
2023,02,20,13,48,61.20
2023,02,20,13,49,62.70
2023,02,20,13,50,61.20
2023,02,20,13,51,59.50
2023,02,20,13,52,57.90
2023,02,20,13,53,56.30
2023,02,20,13,54,54.70
2023,02,20,13,55,57.90
2023,02,20,13,56,56.30
2023,02,20,13,57,54.70
2023,02,20,13,58,56.30
2023,02,20,13,59,59.50
2023,02,20,14,00,56.30
2023,02,20,14,01,57.90
2023,02,20,14,02,57.90
2023,02,20,14,03,59.50
2023,02,20,14,04,54.70
2023,02,20,14,05,53.10
2023,02,20,14,06,49.90
2023,02,20,14,07,57.90
2023,02,20,14,08,64.40
2023,02,20,14,09,57.90
2023,02,20,14,10,61.20
2023,02,20,14,11,56.30
2023,02,20,14,12,48.30
2023,02,20,14,13,49.90
2023,02,20,14,14,49.90
2023,02,20,14,15,43.50
2023,02,20,14,16,41.80
2023,02,20,14,17,41.80
2023,02,20,14,18,41.80
2023,02,20,14,19,48.30
2023,02,20,14,20,49.90
2023,02,20,14,21,46.70
2023,02,20,14,22,48.30
2023,02,20,14,23,40.20
2023,02,20,14,24,46.70
2023,02,20,14,25,57.90
2023,02,20,14,26,57.90
2023,02,20,14,27,51.50
2023,02,20,14,28,51.50
2023,02,20,14,29,49.90
2023,02,20,14,30,53.10
2023,02,20,14,31,57.90
2023,02,20,14,32,54.70
2023,02,20,14,33,57.90
2023,02,20,14,34,57.90
2023,02,20,14,35,59.50
2023,02,20,14,36,59.50
2023,02,20,14,37,57.90
2023,02,20,14,38,51.50
2023,02,20,14,39,56.30
2023,02,20,14,40,53.10
2023,02,20,14,41,48.30
2023,02,20,14,42,45.10
2023,02,20,14,43,40.20
2023,02,20,14,44,43.50
2023,02,20,14,45,49.90
2023,02,20,14,46,46.70
2023,02,20,14,47,41.80
2023,02,20,14,48,41.80
2023,02,20,14,49,46.70
2023,02,20,14,50,41.80
2023,02,20,14,51,46.70
2023,02,20,14,52,43.50
2023,02,20,14,53,46.70
2023,02,20,14,54,43.50
2023,02,20,14,55,41.80
2023,02,20,14,56,41.80
2023,02,20,14,57,43.50
2023,02,20,14,58,43.50
2023,02,20,14,59,40.20
2023,02,20,15,00,41.80
2023,02,20,15,01,43.50
2023,02,20,15,02,40.20
2023,02,20,15,03,38.60
2023,02,20,15,04,40.20
2023,02,20,15,05,41.80
2023,02,20,15,06,41.80
2023,02,20,15,07,35.40
2023,02,20,15,08,33.80
2023,02,20,15,09,38.60
2023,02,20,15,10,33.80
2023,02,20,15,11,33.80
2023,02,20,15,12,37.00
2023,02,20,15,13,33.80
2023,02,20,15,14,30.60
2023,02,20,15,15,30.60
2023,02,20,15,16,30.60
2023,02,20,15,17,27.40
2023,02,20,15,18,32.20
2023,02,20,15,19,29.00
2023,02,20,15,20,25.70
2023,02,20,15,21,25.70
2023,02,20,15,22,20.90
2023,02,20,15,23,25.70
2023,02,20,15,24,24.20
2023,02,20,15,25,24.20
2023,02,20,15,26,30.60
2023,02,20,15,27,32.20
2023,02,20,15,28,35.40
2023,02,20,15,29,27.40
2023,02,20,15,30,27.40
2023,02,20,15,31,25.70
2023,02,20,15,32,30.60
2023,02,20,15,33,29.00
2023,02,20,15,34,27.40
2023,02,20,15,35,30.60
2023,02,20,15,36,29.00
2023,02,20,15,37,25.70
2023,02,20,15,38,27.40
2023,02,20,15,39,25.70
2023,02,20,15,40,22.50
2023,02,20,15,41,22.50
2023,02,20,15,42,25.70
2023,02,20,15,43,24.20
2023,02,20,15,44,32.20
2023,02,20,15,45,30.60
2023,02,20,15,46,27.40
2023,02,20,15,47,27.40
2023,02,20,15,48,35.40
2023,02,20,15,49,35.40
2023,02,20,15,50,35.40
2023,02,20,15,51,40.20
2023,02,20,15,52,37.00
2023,02,20,15,53,37.00
2023,02,20,15,54,33.80
2023,02,20,15,55,33.80
2023,02,20,15,56,37.00
2023,02,20,15,57,35.40
2023,02,20,15,58,33.80
2023,02,20,15,59,33.80
2023,02,20,16,00,32.20
2023,02,20,16,01,32.20
2023,02,20,16,02,35.40
2023,02,20,16,03,33.80
2023,02,20,16,04,46.70
2023,02,20,16,05,46.70
2023,02,20,16,06,45.10
2023,02,20,16,07,51.50
2023,02,20,16,08,49.90
2023,02,20,16,09,33.80
2023,02,20,16,10,32.20
2023,02,20,16,11,38.60
2023,02,20,16,12,35.40
2023,02,20,16,13,37.00
2023,02,20,16,14,35.40
2023,02,20,16,15,35.40
2023,02,20,16,16,30.60
2023,02,20,16,17,33.80
2023,02,20,16,18,32.20
2023,02,20,16,19,37.00
2023,02,20,16,20,29.00
2023,02,20,16,21,33.80
2023,02,20,16,22,33.80
2023,02,20,16,23,30.60
2023,02,20,16,24,33.80
2023,02,20,16,25,33.80
2023,02,20,16,26,29.00
2023,02,20,16,27,27.40
2023,02,20,16,28,32.20
2023,02,20,16,29,38.60
2023,02,20,16,30,38.60
2023,02,20,16,31,32.20
2023,02,20,16,32,33.80
2023,02,20,16,33,37.00
2023,02,20,16,34,30.60
2023,02,20,16,35,29.00
2023,02,20,16,36,30.60
2023,02,20,16,37,32.20
2023,02,20,16,38,32.20
2023,02,20,16,39,27.40
2023,02,20,16,40,29.00
2023,02,20,16,41,24.20
2023,02,20,16,42,22.50
2023,02,20,16,43,20.90
2023,02,20,16,44,19.30
2023,02,20,16,45,17.70
2023,02,20,16,46,17.70
2023,02,20,16,47,12.90
2023,02,20,16,48,11.30
2023,02,20,16,49,11.30
2023,02,20,16,50,12.90
2023,02,20,16,51,12.90
2023,02,20,16,52,12.90
2023,02,20,16,53,9.60
2023,02,20,16,54,9.60
2023,02,20,16,55,11.30
2023,02,20,16,56,9.60
2023,02,20,16,57,9.60
2023,02,20,16,58,11.30
2023,02,20,16,59,11.30
2023,02,20,17,00,11.30
2023,02,20,17,01,9.60
2023,02,20,17,02,9.60
2023,02,20,17,03,11.30
2023,02,20,17,04,12.90
2023,02,20,17,05,12.90
2023,02,20,17,06,12.90
2023,02,20,17,07,12.90
2023,02,20,17,08,16.10
2023,02,20,17,09,12.90
2023,02,20,17,10,12.90
2023,02,20,17,11,11.30
2023,02,20,17,12,12.90
2023,02,20,17,13,16.10
2023,02,20,17,14,16.10
2023,02,20,17,15,17.70
2023,02,20,17,16,16.10
2023,02,20,17,17,19.30
2023,02,20,17,18,17.70
2023,02,20,17,19,16.10